Lid_Strength_Index
5 6 6 7 7 8 8 8 8 7 7 6 5 4 4 4 4 4 4 2 6 8 7 6 5 7 8 8 11 9 9 7 8 10 11 10 11 10 10 9 11 12 13 13 13 14 16 6 7 13 10 8 8 8
7 7 8 8 8 8 8 8 8 7 6 6 5 4 3 3 3 3 4 1 1 5 6 4 4 3 4 5 7 7 8 7 8 9 9 10 11 10 11 15 7 12 10 14 12 12 7 5 7 6 6 8 8 9
7 8 8 8 8 8 7 7 7 7 7 6 5 4 3 3 3 3 2 2 2 7 7 5 5 3 2 3 3 8 6 5 5 4 8 9 11 9 13 11 10 8 6 11 10 8 7 6 6 6 7 9 8 9
7 7 7 7 8 7 7 7 7 7 7 6 6 4 3 3 3 3 3 1 3 6 10 6 2 4 2 2 3 3 3 4 5 6 8 9 11 6 10 9 10 9 8 10 10 7 7 6 8 8 8 9 10 9
7 7 7 7 7 7 7 7 7 7 6 6 5 4 4 3 3 3 2 1 1 6 9 7 5 3 2 2 2 2 3 4 6 8 9 10 7 8 7 8 9 7 12 12 13 8 10 10 8 8 9 11 10 10
7 7 7 6 6 6 6 6 6 6 5 5 5 5 4 4 3 3 5 2 1 2 6 9 5 5 3 2 2 3 3 4 5 7 8 7 5 8 11 11 6 5 5 6 9 7 8 8 8 8 10 11 10 9
6 6 6 6 6 5 5 5 5 5 5 5 5 5 4 4 3 5 5 4 3 1 7 9 8 3 2 2 3 3 2 4 6 7 8 8 7 7 10 12 6 5 6 5 6 8 9 9 10 9 10 10 9 9
6 6 6 6 6 5 5 5 5 5 5 4 4 3 3 3 3 3 2 2 2 3 4 10 9 5 2 5 6 3 5 5 6 7 7 7 7 8 12 8 6 6 5 7 7 7 9 9 9 10 10 9 9 10
6 6 5 5 5 5 5 5 5 4 4 3 3 3 2 3 4 3 1 2 1 3 8 8 10 10 2 4 4 5 5 9 6 9 8 7 9 11 8 7 7 6 8 9 8 8 9 10 10 10 10 10 11 11
5 4 5 5 5 5 5 4 4 3 3 3 2 3 4 2 3 2 2 5 6 6 7 9 6 8 4 5 6 6 6 9 12 8 6 9 9 5 5 5 5 6 8 8 10 11 10 11 11 10 10 10 11 11
4 4 4 4 4 4 4 4 4 3 3 2 3 4 2 2 2 4 7 7 8 9 7 6 5 7 4 8 8 6 8 7 13 9 9 10 11 7 5 5 4 7 8 8 9 9 9 9 11 10 11 11 11 12
4 4 4 4 4 4 4 4 4 3 2 4 4 3 2 4 6 8 8 7 8 9 6 6 6 5 4 4 8 7 10 8 13 7 9 11 10 6 5 5 6 7 8 8 9 10 9 10 10 10 11 11 12 12
4 4 4 4 4 4 4 4 4 3 3 3 4 6 6 6 10 11 12 9 9 6 5 5 6 5 5 4 7 8 12 12 7 10 11 11 7 6 5 5 7 8 8 8 9 9 9 10 9 10 11 11 11 12
3 3 4 4 4 4 3 3 3 2 3 6 6 10 8 9 8 8 7 6 5 3 4 5 5 5 4 7 6 11 8 8 12 13 14 9 6 6 5 5 8 9 8 9 9 9 10 10 10 11 11 11 12 12
3 3 3 3 3 3 3 3 3 2 4 7 6 11 9 7 6 5 3 4 3 2 4 5 5 5 6 7 6 8 11 13 13 13 10 7 6 5 6 7 9 9 9 9 9 10 10 11 11 11 11 11 11 11
3 3 3 3 3 3 3 3 2 2 5 6 7 8 7 7 7 6 5 5 4 3 3 4 6 7 7 7 9 11 13 14 10 9 7 5 5 5 6 7 8 8 9 9 9 10 11 11 11 12 12 12 11 11
3 3 2 3 4 4 3 4 4 7 7 8 9 6 6 6 6 6 5 5 3 5 7 6 9 9 5 9 10 8 9 8 7 6 5 5 5 5 5 7 8 8 8 9 9 10 11 11 11 12 13 12 12 11
4 3 3 4 4 3 4 4 6 7 10 8 8 7 6 5 6 5 4 3 4 5 5 7 6 8 9 10 9 6 6 5 5 6 5 4 4 5 5 7 8 8 8 9 9 10 11 11 12 12 12 12 12 12
3 3 4 4 4 4 6 6 6 9 8 7 6 5 5 5 4 4 4 3 3 3 5 6 8 8 7 5 6 5 5 4 7 6 5 5 4 5 5 6 8 8 8 9 9 10 10 11 11 11 11 12 12 12
4 3 3 3 4 5 8 7 4 7 8 6 5 6 5 5 4 4 4 4 4 5 7 8 7 6 5 4 3 4 4 3 5 5 5 5 4 4 5 6 8 8 8 8 9 10 9 11 10 11 11 11 12 12
3 3 3 3 4 5 6 6 6 6 6 7 5 6 6 5 5 5 5 4 5 6 7 6 6 5 3 3 3 3 4 3 4 4 5 5 3 4 5 5 6 8 8 8 9 10 10 11 11 10 11 11 11 11
2 3 2 3 5 6 6 5 7 6 7 7 7 6 7 7 6 5 4 6 6 5 4 5 4 4 3 3 3 3 3 3 2 4 5 4 4 5 5 5 6 8 9 8 8 9 9 8 10 10 11 11 11 11
3 3 4 5 8 8 9 5 8 7 9 8 6 8 8 7 5 3 6 5 4 3 3 4 3 2 2 3 3 3 2 3 3 3 3 3 3 3 4 5 5 7 8 8 7 8 9 10 10 10 11 11 11 11
4 6 8 8 8 10 7 8 7 8 7 8 8 9 7 6 4 8 9 6 4 3 3 3 3 3 2 3 4 4 3 2 3 3 2 3 4 4 4 4 4 5 6 7 7 8 8 8 10 9 10 11 11 12
9 9 9 11 8 9 10 10 9 9 9 9 9 9 7 6 9 9 9 6 5 4 4 3 3 3 3 4 3 2 1 2 3 4 2 2 3 4 4 4 4 4 4 7 8 8 8 8 8 9 9 10 11 11
12 9 10 9 9 9 9 10 9 9 9 10 9 7 7 9 11 11 8 6 6 4 4 3 4 3 4 3 3 3 2 1 2 3 2 2 3 4 4 5 5 5 3 4 7 8 8 7 8 9 9 10 13 10
11 9 7 5 6 6 8 8 8 9 10 10 9 9 9 12 12 9 6 4 4 2 2 2 2 3 3 3 2 2 1 1 1 1 1 1 1 2 2 4 4 4 3 3 4 7 7 7 8 8 8 9 9 9
7 7 9 7 7 7 10 10 10 10 9 8 10 11 11 11 10 7 5 3 2 2 2 2 1 1 2 2 2 1 1 1 0 0 0 1 1 1 2 2 2 7 2 2 3 4 6 7 8 7 8 8 8 8
7 6 7 10 9 9 9 9 9 8 7 10 11 10 11 8 4 4 3 2 2 2 3 3 2 1 2 1 1 1 1 1 2 4 4 4 3 2 1 1 1 1 1 2 9 6 4 5 6 7 7 7 6 6
8 6 9 9 10 10 7 7 8 7 7 8 8 8 7 5 3 2 3 3 3 3 3 2 2 2 3 3 3 2 1 1 1 3 4 4 3 2 1 1 1 2 1 2 2 3 10 6 7 5 6 7 7 7
6 7 8 9 9 8 7 6 6 6 6 7 6 6 7 5 4 3 3 3 3 3 3 3 3 3 3 3 2 2 3 1 2 2 2 1 1 1 0 0 0 1 1 1 1 2 3 4 4 5 5 6 7 8
7 8 9 10 9 7 7 9 9 8 7 6 6 4 5 5 6 4 3 3 4 4 7 4 4 3 2 2 2 2 9 1 2 2 4 4 3 2 0 -0 -0 0 1 1 1 2 3 3 4 4 4 5 5 6
7 8 8 8 9 10 9 8 8 8 7 7 7 5 5 5 7 3 1 1 3 3 3 3 2 2 1 1 2 2 4 1 4 9 8 9 10 8 3 0 -1 0 1 1 2 2 2 2 3 3 3 4 4 4